Flag for U.S.A. Weather past 2 weeks in Concord, California, U.S.A.

Now
82 °F

Clear.


Feels Like: 81 °F
Forecast: 63 / 93 °F
Wind: 8 mph from South

Location: Buchanan Field

Current Time: Jul 25, 2014 at 10:12:36 PM

Latest Report: Jul 25, 2014 at 9:53 PM


Visibility: 10 mi

Pressure: 29.80 "Hg

Humidity: 31%

Dew point: 48 °F

Location of ConcordLocation

Historic Weather in Concord — Graph

°F

Concord temperature yesterday

Maximum temperature yesterday: 93 °F (at 3:53 PM)
Minimum temperature yesterday: 61 °F (at 5:53 AM)
Average temperature yesterday: 77 °F

Past Weeks' High & Low Weather Summary

 TemperatureHumidityPressure
High100 °F (Jul 25, 3:53 PM)90% (Jul 13, 4:53 AM)30.10 "Hg (Jul 13, 4:53 AM)
Low56 °F (Jul 13, 4:53 AM)10% (Jul 25, 2:53 PM)29.75 "Hg (Jul 25, 5:53 PM)
Average70 °F64%29.92 "Hg
* Reported Jul 10 8:53 PM — Jul 25 8:53 PM, Concord, Weather by CustomWeather, © 2014

Note: Actual official high and low records may vary slightly from our data, if they occured in-between our weather recording intervals... More about our weather records

Advertising

Concord weather history for previous 24 hours

 ConditionsComfort  
Time TempWeatherWind HumidityBarometerVisibility
8:53 PM
Jul 25
86 °FSunny.9 mph25%29.78 "Hg10 mi
7:53 PM89 °FSunny.8 mph23%29.77 "Hg10 mi
6:53 PM93 °FSunny.16 mph20%29.75 "Hg10 mi
5:53 PM99 °FSunny.14 mph12%29.75 "Hg10 mi
4:53 PM100 °FSunny.12 mph10%29.76 "Hg10 mi
3:53 PM100 °FSunny.8 mph10%29.76 "Hg10 mi
2:53 PM98 °FSunny.7 mph10%29.79 "Hg10 mi
1:53 PM97 °FSunny.8 mph14%29.80 "Hg10 mi
12:53 PM96 °FSunny.5 mph16%29.81 "Hg10 mi
11:53 AM91 °FSunny.8 mph20%29.82 "Hg10 mi
10:53 AM86 °FSunny.6 mph29%29.83 "Hg10 mi
9:53 AM80 °FSunny.No wind36%29.83 "Hg10 mi
8:53 AM72 °FSunny.No wind55%29.83 "Hg10 mi
7:53 AM67 °FSunny.No wind71%29.83 "Hg10 mi
6:53 AM62 °FClear.No wind86%29.81 "Hg7 mi
5:53 AM62 °FClear.5 mph86%29.79 "Hg9 mi
4:53 AM62 °FClear.No wind86%29.78 "Hg9 mi
3:53 AM64 °FClear.No wind81%29.78 "Hg9 mi
2:53 AM65 °FClear.5 mph76%29.78 "Hg10 mi
1:53 AM67 °FClear.No wind61%29.79 "Hg10 mi
12:53 AM71 °FClear.5 mph47%29.79 "Hg10 mi
11:53 PM
Jul 24
72 °FClear.5 mph49%29.79 "Hg10 mi
10:53 PM74 °FClear.No wind45%29.79 "Hg10 mi
Weather by CustomWeather, © 2014

See weather overviewHow to use our weather pages